CAPE
0 0 0 0 0 0 0 0 0 0 0 0 0 0 0 0 0 0 0 0 0 0 0 0 0 0 0 0 0 0 0 0 0 0 0 0 0 0 0 0 0 0 0
0 0 0 0 0 0 0 0 0 0 0 0 0 0 0 0 0 0 0 0 0 0 0 0 0 0 0 0 0 0 0 0 0 0 0 0 0 0 0 0 0 0 0
0 0 0 0 0 0 0 0 0 0 0 0 0 0 0 0 0 0 0 0 0 0 0 0 0 0 0 0 0 0 0 0 0 0 0 0 0 0 0 0 0 0 0
0 0 0 0 0 0 0 0 0 0 0 0 0 0 0 0 0 0 0 0 0 0 0 0 0 0 0 0 0 0 0 0 0 0 0 0 0 0 0 0 0 0 0
0 0 0 0 0 0 0 0 0 0 0 0 0 0 0 0 0 0 0 0 0 0 0 0 0 0 0 0 0 0 0 0 0 0 0 0 0 0 0 0 0 0 0
0 0 0 0 0 0 0 0 0 0 0 0 0 0 0 0 0 0 0 0 0 0 0 0 0 0 0 0 0 0 0 0 0 0 0 0 0 0 0 0 0 0 0
0 0 0 0 0 0 0 0 0 0 0 0 0 0 0 0 0 0 0 0 0 0 0 0 0 0 0 0 0 0 0 0 0 0 0 0 0 0 0 0 0 0 0
0 0 0 0 0 0 0 0 0 0 0 0 0 0 0 0 0 0 0 0 0 0 0 0 0 0 0 0 0 0 0 0 0 0 0 0 0 0 0 0 0 0 0
0 0 0 0 0 0 0 0 0 0 0 0 0 0 0 0 0 0 0 0 0 0 0 0 0 0 0 0 0 0 0 0 0 0 0 0 1 3 4 0 0 0 0
0 0 0 0 0 0 0 0 0 0 0 0 0 0 0 0 0 0 0 0 0 0 0 0 0 0 0 0 0 0 0 0 0 0 0 0 0 0 0 0 0 0 0
0 0 0 0 0 0 0 0 0 0 0 0 0 0 0 0 0 0 0 0 0 0 0 0 0 0 0 0 0 0 0 0 0 0 0 0 0 0 0 0 0 0 0
0 0 0 0 0 0 0 0 0 0 0 0 0 0 0 0 1 4 1 2 0 0 0 0 0 0 0 0 0 0 1 1 0 0 0 0 0 0 0 0 0 0 0
0 0 0 0 0 0 0 0 0 0 0 0 0 0 0 0 0 2 0 0 0 0 0 0 0 0 0 0 2 3 2 0 0 0 0 0 0 0 0 0 0 0 0
0 0 0 0 0 0 0 0 0 0 0 0 0 0 0 0 0 0 0 0 0 0 0 0 0 0 0 0 0 0 0 0 0 0 0 0 0 0 0 0 0 0 0
0 0 0 2 2 1 0 0 0 0 0 0 0 0 0 0 0 0 0 0 0 0 0 0 0 0 0 0 0 0 0 0 0 0 0 0 0 0 0 0 0 0 0
0 0 0 0 0 0 0 0 0 0 0 0 0 0 0 0 0 0 0 0 0 0 0 0 0 0 0 0 0 0 0 0 0 0 0 0 0 0 0 0 0 0 0
0 0 0 0 0 0 0 0 0 0 0 0 0 0 0 0 0 0 0 0 1 0 0 0 0 0 0 0 0 0 0 0 0 0 0 0 0 0 0 0 0 0 0
0 0 0 0 0 0 0 0 0 0 0 0 0 0 0 0 0 0 1 0 0 0 0 0 0 0 0 0 0 0 0 0 0 0 0 0 0 0 0 0 0 0 0
0 0 0 0 0 0 0 0 0 0 0 0 0 0 0 0 0 1 0 0 0 0 0 0 0 0 0 0 0 0 0 0 0 0 0 0 0 0 0 0 0 0 0
0 0 0 0 0 0 0 0 0 0 0 0 0 0 0 0 0 0 0 0 0 0 0 0 0 0 0 0 0 0 0 0 0 0 0 0 0 0 0 0 0 0 0
0 0 0 0 0 0 0 0 0 0 0 0 0 0 0 0 0 0 0 0 0 0 0 0 0 0 0 0 0 0 0 0 0 0 0 0 0 0 0 0 0 0 0
0 0 0 0 0 0 0 0 0 0 0 0 0 0 0 0 0 0 0 0 0 0 0 0 0 0 0 0 0 0 0 0 0 0 0 0 0 0 0 0 0 0 0
0 0 0 0 0 0 0 0 0 0 0 0 0 0 0 0 0 0 0 0 0 0 0 0 0 0 0 0 0 0 0 0 0 0 0 0 0 0 0 0 0 0 0
0 0 0 0 0 0 0 0 0 0 0 0 0 0 0 0 0 0 0 0 0 0 0 0 0 0 0 0 0 0 0 0 0 0 0 0 0 0 0 0 0 0 0
0 0 0 0 0 0 0 0 0 0 0 0 0 0 0 0 0 0 0 0 0 0 0 0 0 0 0 0 0 0 0 0 0 0 0 0 0 0 0 0 0 0 0
0 0 0 0 0 0 0 0 0 0 0 0 0 0 0 0 0 0 0 0 0 0 0 0 0 0 0 0 0 0 0 0 0 0 0 0 0 0 0 0 0 0 0
CIN
-0 -0 -0 -0 -0 -0 -0 -0 -0 -0 -0 -0 -0 -0 -0 -0 -0 -0 -0 -0 -0 -0 -0 -0 -0 -0 -0 -0 -0 -0 -0 -0 -0 -0 -0 -0 -0 -0 -0 -0 -0 -0 -0
-0 -0 -0 -0 -0 -0 -0 -0 -0 -0 -0 -0 -0 -0 -0 -0 -0 -0 -0 -0 -0 -0 -0 -0 -0 -0 -0 -0 -0 -0 -0 -0 -0 -0 -0 -0 -0 -0 -0 -0 -0 -0 -0
-0 -0 -0 -0 -0 -0 -0 -0 -0 -0 -0 -0 -0 -0 -0 -0 -0 -0 -0 -0 -0 -0 -0 -0 -0 -0 -0 -0 -0 -0 -0 -0 -0 -0 -0 -0 -0 -0 -0 -0 -0 -0 -0
-0 -0 -0 -0 -0 -0 -0 -0 -0 -0 -0 -0 -0 -0 -0 -0 -0 -0 -0 -0 -0 -0 -0 -0 -0 -0 -0 -0 -0 -0 -0 -0 -0 -0 -0 -0 -0 -0 -0 -0 -0 -0 -0
-0 -0 -0 -0 -0 -0 -0 -0 -0 -0 -0 -0 -0 -0 -0 -0 -0 -0 -0 -0 -0 -0 -0 -0 -0 -0 -0 -0 -0 -0 -0 -0 -0 -0 -0 -0 -0 -0 -0 -0 -0 -0 -0
-0 -0 -0 -0 -0 -0 -0 -0 -0 -0 -0 -0 -0 -0 -0 -0 -0 -0 -0 -0 -0 -0 -0 -0 -0 -0 -0 -0 -0 -0 -0 -0 -0 -0 -0 -0 -0 -0 -0 -0 -0 -0 -0
-0 -0 -0 -0 -0 -0 -0 -0 -0 -0 -0 -0 -0 -0 -0 -0 -0 -0 -0 -0 -0 -0 -0 -0 -0 -0 -0 -0 -0 -0 -0 -0 -0 -0 -0 -0 -0 -0 -0 -0 -0 -0 -0
-0 -0 -0 -0 -0 -0 -0 -0 -0 -0 -0 -0 -0 -0 -0 -0 -0 -0 -0 -0 -0 -0 -0 -0 -0 -0 -0 -0 -0 -0 -0 -0 -0 -0 -0 -0 -0 -0 -0 -0 -0 -0 -0
-0 -0 -0 -0 -0 -0 -0 -0 -0 -0 -0 -0 -0 -0 -0 -0 -0 -0 -0 -0 -0 -0 -0 -0 -0 -0 -0 -0 -0 -0 -0 -0 -0 -0 -0 -0 -0 -0 -0 -0 -0 -0 -0
-0 -0 -0 -0 -0 -0 -0 -0 -0 -0 -0 -0 -0 -0 -0 -0 -0 -0 -0 -0 -0 -0 -0 -0 -0 -0 -0 -0 -0 -0 -0 -0 -0 -0 -0 -0 -0 -0 -0 -0 -0 -0 -0
-0 -0 -0 -0 -0 -0 -0 -0 -0 -0 -0 -0 -0 -0 -0 -0 -0 -0 -0 -0 -0 -0 -0 -0 -0 -0 -0 -0 -0 -0 -0 -0 -0 -0 -0 -0 -0 -0 -0 -0 -0 -0 -0
-0 -0 -0 -0 -0 -0 -0 -0 -0 -0 -0 -0 -0 -0 -0 -0 -0 -0 -0 -0 -0 -0 -0 -0 -0 -0 -0 -0 -0 -0 -0 -0 -0 -0 -0 -0 -0 -0 -0 -0 -0 -0 -0
-0 -0 -0 -0 -0 -0 -0 -0 -0 -0 -0 -0 -0 -0 -0 -0 -0 -0 -0 -0 -0 -0 -0 -0 -0 -0 -0 -0 -0 -0 -1 -0 -0 -0 -0 -0 -0 -0 -0 -0 -0 -0 -0
-0 -0 -0 -0 -0 -0 -0 -0 -0 -0 -0 -0 -0 -0 -0 -0 -0 -0 -0 -0 -0 -0 -0 -0 -0 -0 -0 -0 -0 -0 -0 -0 -0 -0 -0 -0 -0 -0 -0 -0 -0 -0 -0
-0 -0 -0 -0 -0 -0 -0 -0 -0 -0 -0 -0 -0 -0 -0 -0 -0 -0 -0 -0 -0 -0 -0 -0 -0 -0 -0 -0 -0 -0 -0 -0 -0 -0 -0 -0 -0 -0 -0 -0 -0 -0 -0
-0 -0 -0 -0 -0 -0 -0 -0 -0 -0 -0 -0 -0 -0 -0 -0 -0 -0 -0 -0 -0 -0 -0 -0 -0 -0 -0 -0 -0 -0 -0 -0 -0 -0 -0 -0 -0 -0 -0 -0 -0 -0 -0
-0 -0 -0 -0 -0 -0 -0 -0 -0 -0 -0 -0 -0 -0 -0 -0 -0 -0 -0 -0 -0 -0 -0 -0 -0 -0 -0 -0 -0 -0 -0 -0 -0 -0 -0 -0 -0 -0 -0 -0 -0 -0 -0
-0 -0 -0 -0 -0 -0 -0 -0 -0 -0 -0 -0 -0 -0 -0 -0 -0 -0 -0 -0 -0 -0 -0 -0 -0 -0 -0 -0 -0 -0 -0 -0 -0 -0 -0 -0 -0 -0 -0 -0 -0 -0 -0
-0 -0 -0 -0 -0 -0 -0 -0 -0 -0 -0 -0 -0 -0 -0 -1 -0 -0 -0 -0 -0 -0 -0 -0 -0 -0 -0 -0 -0 -0 -0 -0 -0 -0 -0 -0 -0 -0 -0 -0 -0 -0 -0
-0 -0 -0 -0 -0 -0 -0 -0 -0 -0 -0 -0 -0 -0 -0 -0 -0 -0 -0 -0 -0 -0 -0 -0 -0 -0 -0 -0 -0 -0 -0 -0 -0 -0 -0 -0 -0 -0 -0 -0 -0 -0 -0
-0 -0 -0 -0 -0 -0 -0 -0 -0 -0 -0 -0 -0 -0 -0 -0 -0 -0 -0 -0 -0 -0 -0 -0 -0 -0 -0 -0 -0 -0 -0 -0 -0 -0 -0 -0 -0 -0 -0 -0 -0 -0 -0
-0 -0 -0 -0 -0 -0 -0 -0 -0 -0 -0 -0 -0 -0 -0 -0 -0 -0 -0 -0 -0 -0 -0 -0 -0 -0 -0 -0 -0 -0 -0 -0 -0 -0 -0 -0 -0 -0 -0 -0 -0 -0 -0
-0 -0 -0 -0 -0 -0 -0 -0 -0 -0 -0 -0 -0 -0 -0 -0 -0 -0 -0 -0 -0 -0 -0 -0 -0 -0 -0 -0 -0 -0 -0 -0 -0 -0 -0 -0 -0 -0 -0 -0 -0 -0 -0
-0 -0 -0 -0 -0 -0 -0 -0 -0 -0 -0 -0 -0 -0 -0 -0 -0 -0 -0 -0 -0 -0 -0 -0 -0 -0 -0 -0 -0 -0 -0 -0 -0 -0 -0 -0 -0 -0 -0 -0 -0 -0 -0
-0 -0 -0 -0 -0 -0 -0 -0 -0 -0 -0 -0 -0 -0 -0 -0 -0 -0 -0 -0 -0 -0 -0 -0 -0 -0 -0 -0 -0 -0 -0 -0 -0 -0 -0 -0 -0 -0 -0 -0 -0 -0 -0
-0 -0 -0 -0 -0 -0 -0 -0 -0 -0 -0 -0 -0 -0 -0 -0 -0 -0 -0 -0 -0 -0 -0 -0 -0 -0 -0 -0 -0 -0 -0 -0 -0 -0 -0 -0 -0 -0 -0 -0 -0 -0 -0
Wind_Speed
15 15 15 15 16 16 17 17 17 16 16 16 14 12 11 9 8 8 10 10 12 14 15 17 19 19 20 22 23 24 25 26 33 34 31 31 33 34 37 36 37 39 40
15 15 15 15 16 17 18 18 18 18 17 16 15 13 12 11 10 11 11 12 13 14 15 17 18 19 21 22 23 24 25 26 31 37 35 34 34 34 37 40 38 39 42
15 16 16 17 18 19 19 19 19 19 19 17 16 16 14 13 13 12 12 12 14 15 17 18 18 19 21 22 23 26 27 28 30 34 38 34 36 37 41 40 42 42 41
16 18 19 19 19 20 20 20 21 21 21 20 18 17 16 15 15 13 13 14 15 18 17 18 19 19 21 22 24 26 28 30 31 35 37 38 38 38 40 45 48 44 48
18 19 20 19 20 20 20 21 22 22 21 20 19 18 17 17 15 14 16 16 18 20 19 19 20 20 21 23 25 28 28 31 32 35 38 39 40 40 42 41 45 47 47
19 20 20 20 20 21 21 21 22 22 22 21 21 20 19 18 17 17 17 18 21 21 21 21 21 22 23 24 25 25 27 30 33 36 38 40 40 39 38 41 43 47 51
20 20 21 21 21 22 22 23 24 24 23 22 22 21 20 20 18 19 19 21 23 22 22 23 24 24 24 26 27 27 29 30 31 34 37 37 39 37 39 41 40 43 47
21 21 21 21 23 23 23 25 25 24 24 24 23 22 22 21 21 20 21 24 25 24 24 24 26 28 27 28 30 31 33 33 32 32 34 36 35 35 35 36 37 42 44
22 23 22 22 23 23 25 25 25 24 24 24 24 23 23 23 21 23 24 26 27 27 26 26 27 29 29 29 32 35 36 35 32 32 32 32 32 33 30 35 42 46 51
23 22 21 21 22 23 23 23 23 23 24 23 23 23 23 25 24 25 24 26 29 30 29 30 29 30 31 31 33 35 38 38 36 36 34 34 33 32 32 33 36 44 45
19 18 19 19 20 20 20 21 21 21 22 23 24 24 27 26 28 25 24 28 30 31 32 32 32 31 32 32 32 33 35 36 37 37 37 36 33 33 33 33 34 37 42
15 15 15 16 16 17 18 19 20 20 23 25 25 29 27 26 25 24 26 28 29 33 34 33 33 32 32 32 33 34 35 36 37 37 37 37 36 36 35 34 34 35 35
11 11 12 12 14 15 17 18 20 21 22 23 25 26 26 25 26 28 30 31 30 32 32 33 32 32 32 34 34 34 35 36 36 39 40 40 38 37 35 36 35 37 37
9 10 10 10 11 12 13 14 16 18 21 23 23 25 27 29 32 31 30 29 29 31 32 31 31 32 32 33 34 34 35 36 37 40 40 39 38 38 40 38 42 41 43
10 10 11 11 12 13 15 16 18 19 21 24 26 27 29 32 30 28 27 27 27 27 29 32 34 35 37 37 36 36 35 36 38 38 41 42 43 42 43 40 41 41 43
10 11 11 12 13 14 16 18 20 20 21 23 25 26 26 27 26 24 24 24 25 25 28 32 34 33 36 36 37 37 36 38 39 41 43 44 46 45 44 41 40 40 41
12 12 14 15 15 16 16 18 20 21 20 21 23 23 23 23 22 22 23 23 25 25 29 30 33 33 34 35 37 38 41 41 41 43 44 45 45 44 43 41 38 37 37
15 15 15 16 16 16 17 18 19 20 21 23 23 22 21 20 21 22 23 25 28 28 29 33 34 34 35 36 37 39 41 41 42 43 43 44 44 43 40 38 36 35 34
17 17 16 17 18 18 19 20 21 22 22 22 22 23 23 22 23 24 26 28 30 32 31 32 31 32 34 35 37 38 39 40 41 42 42 42 40 37 36 34 32 31 30
19 19 19 20 20 21 21 21 22 22 22 23 24 25 25 26 28 29 28 28 28 30 29 30 31 32 34 35 36 37 37 38 39 40 40 37 35 32 32 30 28 26 23
20 20 20 21 22 22 22 23 23 23 24 24 25 25 26 28 29 29 29 27 29 29 30 30 32 33 33 34 34 35 36 37 37 36 34 32 31 29 27 24 22 19 19
21 21 22 22 23 24 24 24 24 25 25 27 26 26 25 26 27 28 28 29 28 28 29 30 32 32 32 32 33 34 35 36 34 31 29 28 26 24 22 19 17 17 22
22 22 23 24 24 24 25 25 26 26 28 28 28 28 29 29 29 29 30 30 29 29 29 29 31 31 31 30 30 30 32 31 29 26 26 25 22 20 18 15 12 25 25
23 24 25 25 26 27 28 29 29 29 29 30 30 30 30 30 31 31 31 31 30 30 30 30 29 30 29 29 29 28 27 25 23 23 22 20 17 16 12 3 24 26 26
25 26 27 29 29 30 31 31 32 32 32 32 32 31 31 31 32 32 32 31 30 30 30 29 28 28 28 28 28 26 24 22 21 20 19 16 12 10 1 27 27 27 27
28 29 30 31 32 33 33 34 34 33 33 33 32 32 31 31 31 31 31 31 30 30 29 28 27 27 27 27 25 24 22 21 20 17 17 14 10 10 17 29 29 29 28
Wind_Direction
240 240 241 241 237 233 231 233 230 225 220 219 224 231 240 252 269 286 300 308 316 323 328 330 331 333 335 336 338 337 336 335 331 334 337 339 339 340 341 342 343 344 345
241 239 242 238 234 234 236 234 230 224 224 225 230 237 245 256 268 280 291 301 311 318 323 326 326 329 330 333 333 333 332 333 332 331 334 336 336 338 338 339 342 343 342
243 240 244 240 237 238 239 235 230 226 227 230 235 240 246 255 265 278 288 297 307 314 317 318 321 324 325 328 329 329 329 330 331 331 331 334 335 335 336 337 338 339 341
245 244 243 242 242 241 239 232 226 225 228 234 240 245 250 257 268 275 286 295 303 310 311 315 317 318 320 323 324 325 327 327 329 329 330 330 331 334 334 334 334 338 337
251 249 247 247 246 244 238 232 230 229 232 236 242 249 255 261 267 274 284 290 301 303 306 310 313 315 317 320 321 322 323 324 326 327 328 328 328 330 331 333 332 334 336
255 255 256 253 249 245 242 236 234 236 237 240 244 250 256 265 268 278 284 290 298 296 300 305 310 312 314 316 317 320 320 321 322 324 325 325 326 328 330 331 331 332 333
258 258 254 252 249 246 243 240 238 237 241 245 249 253 257 265 272 278 285 291 293 293 298 302 305 309 311 314 315 316 316 316 318 322 321 323 324 327 328 328 330 330 330
263 259 256 252 251 250 245 244 244 243 243 246 251 255 262 267 276 282 283 292 292 292 295 297 302 306 308 310 313 314 314 315 316 318 318 320 322 323 324 326 329 329 329
266 263 260 257 256 252 250 248 248 248 250 252 255 259 263 274 274 285 283 290 291 291 294 296 299 304 306 308 311 311 313 314 316 316 316 317 318 319 322 326 326 328 328
271 268 263 259 257 255 254 252 253 254 257 260 262 264 268 276 282 283 279 290 291 293 295 297 298 302 305 307 308 311 311 314 317 318 318 317 317 320 321 323 325 325 327
276 273 268 264 261 260 260 261 260 262 264 265 267 273 279 276 286 282 279 288 291 294 296 298 300 302 304 307 308 309 309 314 315 315 315 317 318 319 320 322 323 324 325
284 281 277 271 269 266 265 267 267 267 272 273 274 282 282 282 283 283 285 287 291 294 296 299 302 304 306 307 309 310 311 313 314 315 315 316 317 318 318 320 321 322 323
294 291 287 281 279 273 271 271 273 274 274 276 280 282 283 284 288 290 291 290 289 293 299 301 304 306 307 309 310 313 314 315 315 314 314 315 316 318 320 320 320 321 322
308 304 302 295 290 285 283 280 279 278 281 284 285 286 288 291 294 296 295 295 295 296 300 305 308 309 311 313 315 317 317 317 316 316 316 317 319 318 317 318 318 320 320
313 308 305 305 300 297 296 292 289 290 288 289 291 292 293 295 297 299 299 299 299 301 305 307 307 309 310 312 314 316 318 319 318 319 319 318 318 318 318 318 317 318 318
324 320 316 312 308 303 301 303 307 302 300 302 301 299 300 304 305 304 305 307 308 308 308 308 310 313 313 316 317 319 321 321 320 319 319 318 318 318 318 318 318 318 319
331 324 317 314 310 308 306 305 306 311 309 309 310 310 309 307 311 312 312 314 317 314 312 315 314 315 316 317 318 318 319 320 321 320 320 320 320 319 319 318 319 320 321
330 326 323 320 318 315 311 308 308 307 307 311 316 317 315 318 317 317 316 316 315 317 315 313 313 315 316 318 319 320 320 322 323 323 323 323 322 321 321 320 320 321 322
330 329 328 326 322 318 315 311 309 308 307 308 313 316 318 317 318 319 319 314 312 312 314 315 316 317 318 319 321 322 323 323 325 326 326 326 326 325 324 324 323 323 323
327 326 326 323 321 319 317 314 312 310 308 308 308 309 312 313 311 314 316 316 316 315 316 317 318 319 320 321 323 324 325 326 326 327 328 330 331 331 330 330 329 328 329
328 327 326 324 321 320 318 316 315 313 311 311 312 314 314 313 312 314 315 317 317 317 317 318 319 320 321 323 324 325 325 326 327 329 331 333 335 335 337 338 339 340 337
328 326 325 323 322 320 319 319 317 316 314 312 313 315 317 317 315 315 315 316 317 318 319 320 319 320 322 323 324 325 326 327 330 331 333 335 338 340 342 345 347 343 313
327 326 325 323 322 322 320 319 317 315 313 312 312 312 312 312 313 313 314 315 317 318 319 320 319 320 322 323 325 327 328 329 331 333 334 336 340 343 347 350 358 252 255
327 325 324 323 321 320 317 316 315 314 313 312 312 311 311 311 312 312 313 314 315 316 317 317 318 319 322 324 327 329 330 332 333 334 336 337 342 346 353 214 244 249 251
327 325 324 320 319 317 316 315 313 312 311 311 310 310 310 310 310 311 312 313 314 315 316 317 318 320 322 325 327 329 331 332 332 334 336 337 340 345 298 249 252 253 255
327 325 321 320 318 316 314 313 311 310 309 309 309 309 309 309 309 310 311 312 313 314 315 316 318 320 322 325 328 330 331 332 332 332 332 334 334 336 288 252 256 256 254